Location: Alpine Heights
(32.8181°N, 116.7809°W)
Time: 23:22:56
(UTC+00:00)

Milstar 3 - Pass Details

Date: 14 April 2021
Orbit: 1089 x 5155 km, 28.3° (Epoch: 08 May)

Event Time Altitude Azimuth Distance (km) Brightness Sun altitude
Exits shadow 12:39:35 - 262° (W) 3,489 4.7 -8.7°
Reaches altitude 10° 12:39:42 10° 262° (W) 3,452 4.7 -8.7°
Maximum altitude 12:48:20 71° 180° (S) 2,046 4.1 -6.9°
Drops below altitude 10° 13:05:12 10° 100° (E) 6,337 8.0 -3.5°
Sets 13:11:27 0° 99° (E) 7,989 8.7 -2.2°
